{"data":{"norad_id":65839,"intl_designator":"2025-221S","name":"STARLINK-35102","alt_names":[],"object_type":"PAYLOAD","status":"ACTIVE","operator":null,"country":"US","launch_date":"2025-09-29","launch_site_code":"AFWTR","launch_vehicle":null,"mission":null,"orbit_class":"UNKNOWN","rcs_meters":null,"size_class":null,"mass_kg":null,"dimensions":null,"purposes":["comms"],"wikipedia_slug":null,"has_3d_model":false,"image_url":null,"decayed_at":null,"tle_current":{"epoch":"2026-09-20T23:21:02.717568Z","epoch_age_seconds":65300,"freshness":"FRESH","line1":"1 65839U 25221S   26263.97294812  .00018452  00000+0  55587-3 0  9996","line2":"2 65839  53.1560 257.6193 0001827  92.5811 267.5401 15.34400830 54686","mean_motion":15.3440083,"eccentricity":0.0001827,"inclination_deg":53.156,"raan_deg":257.6193,"arg_perigee_deg":92.5811,"mean_anomaly_deg":267.5401,"bstar":0.00055587,"rev_number":5468,"period_min":93.847707316477,"perigee_km":461.45095221213,"apogee_km":463.95059433448,"semimajor_km":6840.8377732733,"source":"CELESTRAK","updated_at":"2026-09-21T09:00:35.722478Z"}}}